Presure
236 241 230 232 214 225 242 243 230 231 221 219 213 205 203 203 204 205 206 208 214 217 218 222 227 231 239
242 239 229 209 226 231 238 219 232 224 207 201 199 196 196 204 206 246 240 245 250 250 251 215 231 219 223
241 225 215 228 236 242 227 220 196 194 195 198 226 248 245 243 240 240 244 232 188 257 260 258 263 268 269
215 233 240 253 225 195 194 193 206 229 245 240 237 237 240 250 252 258 287 353 445 437 424 407 395 387 385
232 236 232 199 193 195 256 252 234 232 230 234 237 251 260 273 282 327 440 424 405 389 390 417 434 447 427
234 211 191 193 253 240 227 215 228 230 232 245 253 260 283 306 428 413 394 389 445 472 468 468 457 484 477
193 200 241 252 230 228 228 236 235 246 250 254 274 291 392 411 381 383 452 386 418 505 497 480 463 447 447
243 234 228 229 229 237 238 242 244 257 275 296 357 428 388 360 418 406 396 393 411 460 458 454 440 425 416
229 230 225 235 238 242 247 257 275 293 404 446 407 368 398 398 369 349 319 317 328 431 443 429 418 423 424
224 236 238 238 254 274 295 361 361 353 414 390 349 396 363 338 324 315 304 298 304 320 390 436 433 425 414
235 239 247 291 334 417 486 442 405 386 375 341 365 346 333 305 303 297 294 295 318 297 328 368 405 422 425
267 359 376 357 485 431 384 379 376 353 371 354 330 314 303 291 290 289 330 344 348 358 299 325 347 377 395
355 335 461 385 379 378 369 344 339 382 350 325 307 297 293 287 294 327 328 318 337 334 353 305 316 329 342
428 415 399 378 357 334 323 336 362 344 310 308 294 289 295 296 327 321 327 303 330 355 330 347 333 302 324
343 338 327 316 350 325 300 358 329 262 303 296 289 285 329 328 322 348 336 287 355 347 361 329 346 352 315
343 340 344 339 338 326 382 349 233 303 291 281 287 317 318 339 367 380 372 378 346 360 379 359 337 356 381
346 340 331 343 325 345 365 214 305 298 289 288 323 324 344 358 388 334 346 341 331 329 337 366 376 394 376
Wind_Speed
81 81 80 82 81 85 90 83 80 80 76 75 72 73 76 77 78 80 82 84 86 86 87 89 90 91 93
81 82 81 83 85 87 86 79 82 81 75 75 76 78 80 85 88 90 94 97 99 101 102 92 100 94 94
78 79 81 88 87 85 82 83 76 78 79 84 86 87 88 91 96 100 102 98 81 107 109 110 112 114 115
80 83 88 90 81 73 76 81 87 92 90 90 90 91 95 100 106 108 116 121 86 82 81 82 82 82 82
83 84 84 74 75 79 96 94 91 93 94 97 98 107 111 121 124 129 83 83 84 84 85 86 85 82 80
85 80 73 79 101 91 86 84 92 99 99 111 116 120 129 135 82 81 85 85 88 82 80 75 71 62 60
78 78 94 104 90 91 94 100 104 114 116 120 128 132 97 74 81 82 79 72 69 66 63 58 53 49 48
101 93 91 94 94 102 106 111 116 125 131 129 109 63 67 77 71 65 62 58 52 42 34 34 35 37 42
94 97 95 104 109 114 119 124 129 133 85 59 58 61 57 57 55 51 52 51 52 36 29 27 26 27 30
98 108 111 114 124 130 131 98 91 83 55 50 58 45 39 53 53 47 51 51 50 45 36 29 27 28 36
111 116 122 129 119 75 35 37 42 49 50 46 37 42 39 39 55 48 50 48 46 43 39 33 31 30 31
122 102 89 91 26 29 43 45 43 41 38 31 34 38 40 45 48 48 41 39 39 39 38 33 28 26 23
79 81 21 46 40 36 38 40 43 31 27 31 33 37 37 40 43 41 37 41 37 36 34 31 25 19 15
25 22 22 27 32 37 42 40 34 32 30 30 32 36 38 36 32 35 43 35 39 35 34 30 24 18 13
46 42 42 45 34 37 43 30 29 39 34 31 32 33 35 35 37 38 32 31 38 34 26 32 26 21 19
41 39 35 34 33 33 29 25 43 26 29 33 36 38 42 51 53 45 42 35 24 31 30 20 30 23 18
37 35 33 31 31 32 25 44 25 25 26 30 31 35 39 35 39 21 22 20 20 20 17 16 17 20 10
Wind_Direction
294 296 294 295 294 297 300 296 293 291 290 290 289 288 286 285 284 281 279 277 276 275 272 270 268 266 264
296 294 292 292 294 297 296 292 291 289 289 288 286 284 283 285 284 282 278 276 274 273 271 277 272 271 269
295 289 290 294 295 294 292 290 290 288 287 287 289 290 288 285 282 280 278 278 279 276 273 272 270 268 266
289 294 297 296 293 289 292 291 292 294 295 292 290 290 290 290 287 290 292 295 289 288 286 283 280 277 275
294 296 294 291 292 293 302 300 296 294 295 296 296 298 298 297 296 299 294 294 293 292 290 287 283 279 275
296 293 297 295 302 299 297 295 297 297 298 300 300 300 299 301 297 296 296 300 296 294 292 288 284 277 272
295 300 302 300 299 300 300 300 300 300 300 299 299 300 299 297 296 299 298 302 303 297 297 296 290 281 271
301 301 301 300 301 302 301 302 301 300 298 299 299 296 296 295 297 302 306 309 310 310 317 307 291 275 265
303 302 303 304 304 302 301 299 297 297 297 300 297 296 299 299 302 307 304 307 312 313 308 290 282 281 269
304 304 304 303 300 297 295 298 298 300 295 302 296 299 303 301 302 305 303 306 310 317 326 305 291 269 262
304 303 301 296 295 298 301 299 298 301 299 299 294 301 304 294 300 306 305 305 311 311 322 331 320 303 286
298 296 297 297 308 305 301 303 300 299 301 303 301 304 304 303 302 304 311 321 324 322 311 325 335 337 325
297 297 315 303 303 307 306 302 303 309 306 303 303 301 302 301 302 310 314 310 319 316 318 312 323 327 338
318 319 317 311 309 304 302 309 310 310 310 309 307 305 306 307 309 310 311 304 315 309 308 311 306 308 302
304 305 303 302 312 308 305 308 306 308 315 313 307 306 314 310 310 310 304 316 304 302 307 300 299 297 285
314 314 315 313 314 312 318 308 306 314 313 312 317 323 322 319 319 318 317 321 307 310 314 299 298 296 295
316 315 314 314 315 318 318 307 313 313 315 317 324 324 321 315 315 4 29 18 358 354 359 352 309 313 280